Tracking 29781 objects as of 16-Oct-2024
HD Live streaming from Space Station
objects crossing your sky now

STARLINK-5640

Track STARLINK-5640 now!
10-day predictions
STARLINK-5640 is classified as:


NORAD ID: 55436
Int'l Code: 2023-014AX
Perigee: 577.0 km
Apogee: 581.4 km
Inclination: 70.0 °
Period: 96.1 minutes
Semi major axis: 6950 km
RCS: Unknown
Launch date: January 31, 2023
Source: United States (US)
Launch site: AIR FORCE WESTERN TEST RANGE (AFWTR)
Your satellite tracking list
Your tracking list is empty




NASA's NSSDC Master Catalog

Two Line Element Set (TLE):
1 55436U 23014AX  24289.48409552  .00002596  00000-0  22526-3 0  9997
2 55436  69.9980 310.9117 0003169 267.4432  92.6364 14.98338692 94641
Source of the keplerian elements: AFSPC